Location: Betra
(48.4113°N, 8.6634°E)
Time: 07:35:16
(UTC+00:00)

Cosmos 1953 - Pass Details

Date: 04 August 2024
Orbit: 506 x 524 km, 82.5° (Epoch: 07 September)

Event Time Altitude Azimuth Distance (km) Brightness Sun altitude
Rises 02:58:20 0° 138° (SE) 2,604 5.8 -10.0°
Reaches altitude 10° 03:01:38 10° 106° (ESE) 1,730 5.4 -9.5°
Maximum altitude 03:03:04 12° 83° (E) 1,619 5.7 -9.3°
Drops below altitude 10° 03:04:30 10° 61° (ENE) 1,740 6.4 -9.2°
Sets 03:07:51 0° 30° (NNE) 2,640 7.3 -8.7°
